Modesto, CA

3:14 PM PDT on September 25, 2016 (GMT -0700)
Modesto City-County-Sham

Weather History for KMOD - August, 2014

Change the Weather History Date:

Tuesday, August 19, 2014

  Actual Average Record
Temperature  
Mean Temperature 74 °F -  
Max Temperature 88 °F 93 °F 106 °F (1950)
Min Temperature 60 °F 62 °F 49 °F (1959)
Degree Days  
Heating Degree Days 0 0  
Month to date heating degree days 0 0  
Since 1 June heating degree days 0 3  
Since 1 July heating degree days 0 0  
Cooling Degree Days 9 13  
Month to date cooling degree days 258 256  
Year to date cooling degree days 1286 1191  
Since 1 June cooling degree days 1034 992  
Growing Degree Days 24 (Base 50)    
Moisture  
Dew Point 56 °F    
Average Humidity 60    
Maximum Humidity 84    
Minimum Humidity 35    
Precipitation  
Precipitation 0.00 in 0.00 in 0.19 in (1983)
Month to date precipitation 0.00 0.01  
Year to date precipitation 5.51 8.76  
Since 1 July precipitation 0.00  
Snow  
Snow 0.00 in - - ()
Month to date snowfall 0.0  
Since 1 June snowfall 0.0  
Since 1 July snowfall 0.0  
Snow Depth -    
Sea Level Pressure  
Sea Level Pressure 29.78 in    
Wind  
Wind Speed 9 mph (NNW)    
Max Wind Speed 15 mph    
Max Gust Speed 18 mph    
Visibility 10 miles    
Events      
T = Trace of Precipitation, MM = Missing Value Source: NWS Daily Summary

Daily Weather History Graph

Daily Weather History Graph

Search for Another Location

Airport or City:

Trip Planner

Search our weather history database for the weather conditions in past years. The results will help you decide how hot, cold, wet, or windy it might be!

Date:

Astronomy

Aug. 19, 2014 Rise Set
Actual Time 6:23 AM PDT 7:51 PM PDT
Civil Twilight 5:55 AM PDT 8:18 PM PDT
Nautical Twilight 5:22 AM PDT 8:51 PM PDT
Astronomical Twilight 4:47 AM PDT 9:26 PM PDT
Moon 1:21 AM PDT (8/19) 3:49 PM PDT (8/19)
Length of Visible Light 14h 23m
Length of Day
13h 27m
Waning Crescent, 28% of the Moon is Illuminated
Aug 19
Waning Crescent
Aug 25
New
Sep 2
First Quarter
Sep 8
Full
Sep 15
Last Quarter

Hourly Weather History & Observations

Time (PDT) Temp. Heat Index Dew Point Humidity Pressure Visibility Wind Dir Wind Speed Gust Speed Precip Events Conditions
12:53 AM 64.9 °F - 55.0 °F 70% 29.76 in 10.0 mi NW 10.4 mph - N/A   Clear
1:53 AM 64.0 °F - 55.0 °F 73% 29.76 in 10.0 mi NNW 6.9 mph - N/A   Clear
2:53 AM 63.0 °F - 55.9 °F 78% 29.77 in 10.0 mi NNW 12.7 mph - N/A   Clear
3:53 AM 62.1 °F - 55.9 °F 80% 29.78 in 10.0 mi NNW 9.2 mph - N/A   Clear
4:53 AM 62.1 °F - 55.9 °F 80% 29.78 in 10.0 mi NNW 9.2 mph - N/A   Clear
5:53 AM 61.0 °F - 55.0 °F 81% 29.78 in 10.0 mi NNW 10.4 mph - N/A   Clear
6:19 AM 61.0 °F - 55.0 °F 81% 29.79 in 10.0 mi North 9.2 mph - N/A   Partly Cloudy
6:53 AM 61.0 °F - 55.0 °F 81% 29.80 in 10.0 mi NNW 9.2 mph - N/A   Clear
7:53 AM 61.0 °F - 55.9 °F 83% 29.82 in 10.0 mi North 6.9 mph - N/A   Clear
8:53 AM 64.9 °F - 55.9 °F 73% 29.83 in 10.0 mi NW 12.7 mph - N/A   Clear
9:53 AM 68.0 °F - 55.9 °F 65% 29.83 in 10.0 mi WNW 9.2 mph - N/A   Clear
10:53 AM 71.1 °F - 55.9 °F 59% 29.83 in 10.0 mi Variable 6.9 mph - N/A   Clear
11:53 AM 75.0 °F - 55.9 °F 51% 29.81 in 10.0 mi NW 5.8 mph - N/A   Clear
12:53 PM 80.1 °F 80.2 °F 55.9 °F 43% 29.79 in 10.0 mi NNW 10.4 mph - N/A   Clear
1:53 PM 82.9 °F 82.1 °F 55.9 °F 39% 29.77 in 10.0 mi NW 6.9 mph - N/A   Clear
2:53 PM 84.9 °F 83.7 °F 55.9 °F 37% 29.75 in 10.0 mi Variable 6.9 mph - N/A   Clear
3:53 PM 86.0 °F 84.7 °F 55.9 °F 36% 29.73 in 10.0 mi West 9.2 mph - N/A   Clear
4:53 PM 88.0 °F 86.7 °F 57.0 °F 35% 29.73 in 10.0 mi WNW 9.2 mph - N/A   Clear
5:53 PM 86.0 °F 85.0 °F 57.9 °F 38% 29.73 in 10.0 mi NNW 9.2 mph - N/A   Clear
6:53 PM 82.9 °F 82.4 °F 57.0 °F 41% 29.73 in 10.0 mi NNW 9.2 mph - N/A   Clear
7:53 PM 80.1 °F 80.7 °F 59.0 °F 48% 29.74 in 10.0 mi NNW 10.4 mph - N/A   Clear
8:53 PM 78.1 °F - 57.0 °F 48% 29.76 in 10.0 mi North 9.2 mph - N/A   Clear
9:53 PM 73.9 °F - 57.9 °F 57% 29.78 in 10.0 mi NNW 8.1 mph - N/A   Clear
10:53 PM 71.1 °F - 57.0 °F 61% 29.78 in 10.0 mi NNW 8.1 mph - N/A   Clear
11:53 PM 68.0 °F - 57.0 °F 68% 29.78 in 10.0 mi North 8.1 mph - N/A   Clear